Change the Weather History Date:

Monday, October 8, 2012

  Actual Average Record
Temperature  
Mean Temperature 52 °F -  
Max Temperature 72 °F 71 °F 82 °F (1987)
Min Temperature 32 °F 40 °F 28 °F (1992)
Degree Days  
Heating Degree Days 13    
Growing Degree Days 2 (Base 50)    
Moisture  
Dew Point 9 °F    
Average Humidity 18    
Maximum Humidity 34    
Minimum Humidity 4    
Precipitation  
Precipitation 0.00 in - - ()
Sea Level Pressure  
Sea Level Pressure 30.05 in    
Wind  
Wind Speed 5 mph (NE)    
Max Wind Speed 12 mph    
Max Gust Speed -    
Visibility 10 miles    
Events      
Averages and records for this station are not official NWS values.
T = Trace of Precipitation, MM = Missing Value Source: NWS Daily Summary

Daily Weather History Graph

Daily Weather History Graph

Search for Another Location

Airport or City:

Trip Planner

Search our weather history database for the weather conditions in past years. The results will help you decide how hot, cold, wet, or windy it might be!

Date:

Astronomy

Oct. 08, 2012 Rise Set
Actual Time 7:14 AM MDT 6:45 PM MDT
Civil Twilight 6:48 AM MDT 7:11 PM MDT
Nautical Twilight 6:18 AM MDT 7:41 PM MDT
Astronomical Twilight 5:48 AM MDT 8:11 PM MDT
Moon 12:07 AM MDT (10/8) 2:27 PM MDT (10/8)
Length of Visible Light 12h 22m
Length of Day
11h 30m
Last Quarter, 46% of the Moon is Illuminated
Oct 8
Last Quarter
Oct 15
New
Oct 21
First Quarter
Oct 29
Full
Nov 6
Last Quarter

Hourly Weather History & Observations

Time (MDT) Temp. Windchill Dew Point Humidity Pressure Visibility Wind Dir Wind Speed Gust Speed Precip Events Conditions
12:53 AM 37.9 °F 34.4 °F -2.0 °F 18% 30.07 in 10.0 mi North 4.6 mph - N/A   Clear
1:53 AM 34.0 °F 31.0 °F -0.9 °F 23% 30.09 in 10.0 mi NNE 3.5 mph - N/A   Clear
2:53 AM 33.1 °F 30.0 °F -0.9 °F 23% 30.09 in 10.0 mi ENE 3.5 mph - N/A   Clear
3:53 AM 33.1 °F - 3.0 °F 28% 30.08 in 10.0 mi Calm Calm - N/A   Clear
4:53 AM 34.0 °F 27.2 °F 6.1 °F 31% 30.09 in 10.0 mi East 8.1 mph - N/A   Clear
5:53 AM 33.1 °F 27.7 °F 7.0 °F 34% 30.10 in 10.0 mi ENE 5.8 mph - N/A   Clear
6:53 AM 34.0 °F 26.6 °F 7.0 °F 32% 30.12 in 10.0 mi East 9.2 mph - N/A   Clear
7:53 AM 36.0 °F 30.3 °F 8.1 °F 31% 30.14 in 10.0 mi East 6.9 mph - N/A   Clear
8:53 AM 42.1 °F 38.4 °F 9.0 °F 26% 30.14 in 10.0 mi ESE 5.8 mph - N/A   Clear
9:53 AM 46.9 °F - 10.9 °F 23% 30.13 in 10.0 mi ESE 5.8 mph - N/A   Clear
10:53 AM 55.0 °F - 8.1 °F 15% 30.09 in 10.0 mi East 6.9 mph - N/A   Clear
11:53 AM 60.1 °F - 5.0 °F 11% 30.09 in 10.0 mi East 4.6 mph - N/A   Clear
12:53 PM 63.0 °F - 3.9 °F 10% 30.06 in 10.0 mi Calm Calm - N/A   Clear
1:53 PM 66.0 °F - -0.9 °F 7% 30.03 in 10.0 mi Calm Calm - N/A   Clear
2:53 PM 71.1 °F - 5.0 °F 8% 29.99 in 10.0 mi West 5.8 mph - N/A   Clear
3:53 PM 71.1 °F - 6.1 °F 8% 29.98 in 10.0 mi Variable 4.6 mph - N/A   Clear
4:53 PM 72.0 °F - 10.9 °F 10% 29.96 in 10.0 mi NW 11.5 mph - N/A   Clear
5:53 PM 70.0 °F - 17.1 °F 13% 29.96 in 10.0 mi WNW 10.4 mph - N/A   Clear
6:53 PM 64.9 °F - 19.0 °F 17% 29.98 in 10.0 mi West 5.8 mph - N/A   Clear
8:53 PM 60.1 °F - 17.1 °F 19% 29.99 in 10.0 mi SW 4.6 mph - N/A   Clear
9:53 PM 53.1 °F - 16.0 °F 23% 30.01 in 10.0 mi Calm Calm - N/A   Clear
10:53 PM 48.9 °F - 16.0 °F 27% 30.00 in 10.0 mi North 3.5 mph - N/A   Clear
11:53 PM 46.9 °F - 18.0 °F 32% 29.99 in 10.0 mi NNE 5.8 mph - N/A   Clear